Location: Rowland
(34.5359°N, 79.2929°W)
Time: 14:17:28
(UTC+00:00)

Transit 4A - Pass Details

Date: 07 October 2022
Orbit: 871 x 972 km, 66.8° (Epoch: 29 November)

Event Time Altitude Azimuth Distance (km) Brightness Sun altitude
Rises 04:03:47 0° 267° (W) 3,592 - -57.7°
Reaches altitude 10° 04:09:08 10° 306° (NW) 2,621 - -58.2°
Maximum altitude 04:10:16 11° 317° (NW) 2,579 - -58.3°
Drops below altitude 10° 04:11:23 10° 327° (NNW) 2,609 - -58.4°
Sets 04:16:41 0° 7° (N) 3,524 - -58.9°
